Theta_e
344 346 346 348 352 352 353 355 355 357 356 357 356 354 354 353 352 352 353 345 343 350 353 353 353 352 350 350 349 346 346 344 338 343 345 343 341 342 343 349 349 346 343
345 345 346 351 356 354 355 356 357 356 357 357 356 357 356 355 356 355 352 352 353 354 355 354 353 351 351 351 350 350 347 343 345 344 345 344 345 344 346 347 347 349 349
347 347 349 354 353 357 357 358 359 360 359 358 358 358 357 355 358 355 355 356 356 348 350 350 352 350 351 351 349 346 348 348 348 349 346 345 348 346 343 344 344 343 349
348 349 351 353 356 358 358 359 360 362 361 359 358 359 358 357 355 355 354 355 354 352 351 353 353 352 349 350 348 349 349 350 351 350 348 346 345 345 346 342 340 338 338
350 351 353 353 356 359 359 360 361 363 363 360 358 361 361 359 357 353 351 350 342 338 335 337 339 341 339 341 345 346 347 346 347 347 348 348 347 345 344 344 340 342 344
351 351 353 354 354 358 360 362 363 363 364 363 359 362 362 360 360 353 343 341 341 339 334 337 337 337 339 342 341 341 341 341 342 342 343 347 346 344 341 341 341 342 343
351 353 354 355 355 355 361 363 364 364 363 366 362 360 362 361 358 344 343 342 340 331 335 336 337 338 337 337 338 339 340 339 339 339 340 340 341 342 343 343 343 344 345
350 352 352 355 354 353 357 363 365 365 365 364 365 363 360 359 347 346 342 339 330 337 336 334 334 333 336 336 339 338 337 338 338 338 339 339 340 341 341 341 342 343 344
349 345 346 353 353 352 354 364 366 365 365 364 363 363 359 350 344 341 336 329 336 333 332 335 335 335 335 335 335 337 338 337 336 334 334 335 336 338 337 336 337 339 342
345 342 342 351 351 351 354 363 364 365 366 365 361 355 349 345 341 337 334 334 333 335 337 336 336 336 337 338 338 335 335 333 333 332 329 330 332 333 333 333 330 336 339
343 342 341 348 348 350 355 364 366 367 360 356 353 348 345 341 339 337 335 334 336 333 331 333 335 337 337 336 335 334 333 333 330 329 329 329 330 330 330 329 330 333 336
341 342 344 347 349 350 361 363 362 360 354 351 348 346 340 338 337 335 332 331 328 332 333 336 338 336 335 334 333 331 332 329 325 324 324 324 324 324 326 327 327 327 328
336 345 346 346 347 347 353 358 357 354 350 348 346 341 339 338 337 334 331 329 334 336 336 336 335 334 333 332 330 331 326 325 323 321 321 322 323 324 324 326 325 325 325
339 341 348 346 346 347 353 354 353 351 348 346 342 340 337 337 335 332 330 330 335 336 337 335 334 332 332 329 330 327 323 321 321 321 321 322 323 323 322 324 323 323 325
342 343 357 352 352 353 352 351 350 348 346 342 339 337 336 337 334 331 330 329 334 334 336 332 330 330 328 330 327 321 321 321 321 321 322 323 323 323 323 324 323 323 325
337 340 358 356 356 352 350 349 348 346 343 340 338 336 336 335 333 331 330 331 334 336 334 329 329 328 330 327 323 321 322 320 321 322 323 322 322 322 322 322 323 324 325
337 339 343 353 355 352 350 348 347 344 340 338 336 336 335 334 332 330 331 334 337 335 331 327 329 328 327 324 322 322 321 320 322 324 323 323 324 322 321 322 323 324 324
335 336 339 352 354 351 349 348 344 341 339 338 337 335 334 333 330 330 335 335 336 335 331 328 331 327 327 320 319 321 322 321 323 323 324 323 324 324 322 322 323 324 329
338 339 338 339 354 353 349 348 344 342 339 337 336 335 334 332 330 333 335 334 334 333 330 331 329 328 322 318 318 321 320 322 323 324 324 323 321 324 326 323 323 327 334
342 341 341 344 354 353 351 348 345 342 338 337 336 335 334 331 330 334 334 333 332 333 332 328 328 329 322 318 317 321 319 321 323 323 324 323 322 327 335 329 332 334 335
342 341 341 342 354 352 349 347 344 340 338 337 336 335 334 331 331 334 333 333 333 333 331 328 327 325 319 318 319 318 319 321 323 323 324 323 322 322 328 332 335 335 336
343 344 344 345 355 352 348 344 341 340 337 336 336 334 331 331 331 334 334 334 331 332 330 330 326 324 321 320 321 316 319 324 323 324 323 324 323 322 324 325 331 333 335
337 338 342 347 352 349 347 343 341 340 338 338 335 334 333 334 332 331 331 331 330 330 330 327 324 325 323 322 319 316 318 322 324 323 325 323 325 322 320 323 323 324 325
332 332 333 339 345 348 346 343 342 341 338 335 333 331 327 326 326 325 328 331 331 331 326 324 324 321 316 313 313 313 315 320 322 321 321 324 325 324 322 319 319 322 322
326 324 326 328 328 340 342 342 340 337 336 334 328 324 325 324 325 325 330 331 329 326 323 322 317 314 313 311 312 312 313 315 319 321 319 318 321 322 324 325 322 318 318
325 323 327 327 326 341 340 340 338 335 330 328 325 325 327 325 324 328 329 327 322 321 320 316 316 314 312 310 309 312 312 312 314 316 317 317 317 318 320 321 322 321 321
Wind_Speed
14 27 28 27 29 28 26 23 21 19 20 18 15 13 14 13 14 12 11 12 8 12 16 19 19 21 21 22 23 25 23 27 18 19 15 20 32 28 26 30 32 31 33
14 20 28 28 29 30 27 24 22 22 20 18 15 15 13 11 8 12 10 11 7 9 16 19 18 18 17 18 20 23 23 22 23 9 7 4 14 18 20 29 32 33 33
17 18 25 29 33 32 30 28 25 23 21 20 18 16 14 11 10 12 14 12 10 10 14 16 19 18 16 18 18 19 19 21 23 18 10 2 3 9 20 21 26 21 20
17 17 23 25 31 33 33 30 28 25 23 21 19 16 15 13 11 12 14 13 9 10 14 15 17 17 16 16 16 15 16 18 20 22 19 24 21 5 9 21 23 25 18
21 21 23 29 30 33 35 33 30 27 25 24 21 19 17 14 4 9 8 7 3 3 9 6 5 6 10 11 13 13 13 15 18 21 18 17 22 25 13 10 13 13 19
22 21 29 32 31 32 34 34 33 30 26 25 23 21 15 15 9 6 4 3 6 8 8 10 11 11 9 8 12 15 17 19 20 22 24 22 14 8 12 8 16 20 34
22 22 21 28 31 33 32 35 36 32 29 25 25 23 21 13 13 8 6 7 8 10 8 10 9 10 13 16 15 15 17 19 20 22 24 25 26 24 24 20 19 13 30
22 23 21 30 33 33 37 33 36 33 29 25 22 20 19 16 11 10 8 7 8 8 9 12 14 16 16 16 15 18 19 19 21 23 23 26 27 25 24 23 21 13 15
21 18 14 29 33 31 36 37 36 35 31 26 23 22 21 15 14 10 7 6 7 11 10 11 14 15 16 18 19 19 19 20 22 25 25 26 28 25 24 26 27 21 14
19 14 15 24 31 32 34 38 38 36 31 26 24 19 14 11 10 8 5 5 8 9 10 13 14 16 18 18 18 21 21 21 20 23 28 29 28 29 28 28 31 29 25
21 17 15 24 30 30 32 35 33 33 29 25 19 13 12 10 8 7 4 4 7 11 12 12 13 16 18 18 19 21 21 20 26 26 27 29 30 32 33 31 30 31 28
5 20 19 25 25 21 26 33 36 35 31 25 19 17 13 10 8 8 5 6 8 9 12 14 15 16 18 19 19 21 22 19 30 33 33 35 36 36 36 36 35 33 34
9 9 6 11 18 26 26 30 34 35 32 27 26 19 12 9 9 8 6 7 9 12 12 12 15 16 18 20 21 21 24 33 35 38 39 40 41 42 37 36 36 34 34
5 6 7 15 28 33 31 32 33 37 33 28 23 17 13 10 10 8 7 7 9 10 10 12 13 16 18 20 18 24 35 40 39 40 41 44 47 47 40 38 35 34 34
7 6 4 8 18 24 27 28 31 34 33 28 21 17 13 10 9 8 8 8 9 9 8 11 11 13 14 14 21 29 35 38 42 42 43 41 43 43 43 38 33 30 31
6 6 6 6 12 22 26 30 32 32 30 26 20 15 13 11 8 8 10 9 10 6 8 10 11 13 12 17 21 31 38 40 39 41 42 42 38 36 38 40 41 40 33
6 7 4 8 18 22 26 28 27 29 27 23 19 15 14 11 10 9 10 10 7 7 8 8 10 13 16 21 25 34 39 37 38 40 43 40 35 31 30 31 34 39 43
7 6 4 5 21 29 32 32 33 31 27 22 18 16 14 12 11 11 10 9 7 9 10 10 9 14 14 19 27 36 42 37 42 40 39 37 36 35 29 27 28 31 34
5 3 5 6 23 26 31 31 30 28 27 25 20 17 15 14 14 12 10 8 9 9 10 9 12 11 13 19 28 36 41 39 39 41 41 38 38 32 30 24 27 28 28
5 3 6 6 21 26 29 30 28 29 28 23 20 18 17 16 13 12 10 11 11 11 8 11 12 6 15 21 29 31 38 35 35 42 42 42 46 25 14 21 20 19 25
2 5 4 5 20 26 30 29 28 27 26 20 20 18 16 13 12 12 13 15 13 12 13 14 5 4 13 20 26 31 35 32 27 34 40 44 45 36 20 14 14 16 14
18 21 5 8 16 25 28 26 25 25 22 21 18 16 10 8 9 14 19 17 16 14 15 15 1 6 14 20 26 29 29 32 32 30 36 38 49 42 45 37 28 26 28
14 19 20 15 19 27 31 28 31 28 25 23 17 12 5 5 11 15 19 20 18 15 14 3 4 8 14 18 24 26 26 28 35 32 27 35 37 43 45 43 43 39 31
11 15 19 21 20 6 8 8 6 4 20 22 18 13 9 12 24 25 22 22 21 17 8 3 5 9 14 20 23 23 24 25 29 33 32 32 30 29 33 37 40 37 35
10 15 16 15 15 11 4 11 17 19 22 11 21 11 4 14 34 31 27 24 11 13 10 7 9 12 15 17 18 17 22 21 24 28 35 35 32 31 24 27 33 36 35
6 8 10 12 18 6 5 13 17 19 20 23 21 15 21 28 23 22 21 16 12 9 12 12 10 13 12 16 18 13 17 21 21 28 24 25 26 27 27 26 26 30 28
Wind_Direction
164 167 170 172 172 175 180 183 179 180 185 190 194 209 218 228 242 247 256 257 294 278 279 278 280 289 291 291 289 297 285 288 296 304 277 285 286 285 270 262 269 261 258
164 170 171 172 173 179 185 189 193 195 197 202 209 210 223 235 262 247 257 250 254 256 264 278 287 297 300 296 294 295 293 283 293 277 291 309 309 295 291 280 260 261 262
173 176 171 170 177 180 186 192 196 201 202 202 212 217 232 240 242 234 238 237 230 272 269 283 285 295 298 299 299 300 297 287 297 292 244 288 236 297 287 285 282 293 272
173 177 173 174 177 184 190 195 198 204 206 200 212 214 214 225 237 243 222 214 236 295 290 286 280 286 301 299 307 304 299 292 286 296 289 258 250 254 292 276 280 271 273
173 176 175 179 180 184 190 197 198 201 205 204 212 213 219 231 210 148 141 184 253 322 337 342 330 318 311 318 316 317 314 307 300 300 296 289 267 253 249 283 289 275 266
173 174 178 177 183 185 188 194 197 199 203 205 204 208 210 222 219 232 264 265 266 287 310 320 329 333 336 331 319 316 313 313 310 309 304 292 279 255 234 257 272 279 283
169 178 176 178 183 181 184 188 192 196 202 208 208 212 214 211 217 228 228 246 289 314 322 321 331 326 318 319 322 318 315 315 313 311 309 307 303 292 278 260 269 276 284
172 178 181 182 183 181 182 184 185 190 197 202 204 211 208 207 205 211 228 274 305 305 298 306 310 319 323 321 318 316 315 314 313 314 313 312 309 307 298 282 286 280 274
173 184 173 182 183 181 181 178 180 186 190 198 208 205 191 190 196 222 260 297 292 297 306 310 320 323 323 322 321 319 313 311 310 309 311 309 304 299 297 296 291 276 284
187 194 188 181 181 181 178 178 183 183 183 189 190 190 199 209 222 238 259 295 308 313 312 316 322 322 321 318 313 310 310 310 307 303 301 297 289 287 284 284 285 273 267
204 196 196 173 178 177 165 166 170 171 166 175 180 193 197 210 229 245 264 295 296 304 310 319 325 323 321 320 316 312 309 304 307 311 304 293 286 280 276 271 269 269 268
119 178 179 171 166 162 151 160 167 172 173 172 174 178 189 216 236 256 279 298 317 330 329 332 330 329 324 322 320 314 308 309 313 309 301 293 289 281 274 267 263 259 261
86 94 122 101 90 144 207 168 170 170 164 164 170 173 194 219 248 267 288 312 322 319 325 328 332 329 329 327 324 320 322 324 314 304 295 286 282 276 272 265 261 257 262
86 106 142 161 169 185 180 164 166 168 168 169 172 178 187 211 239 265 277 299 311 319 338 335 332 330 334 330 324 334 331 323 308 299 290 285 286 275 274 269 262 261 254
86 71 105 145 167 155 154 159 162 167 166 163 168 174 187 205 238 253 272 288 298 320 325 328 333 332 328 336 332 335 329 318 312 301 293 289 290 278 269 267 259 250 252
82 43 117 130 133 149 155 160 162 168 166 160 163 172 185 202 224 251 268 282 293 295 308 324 323 332 331 334 335 342 332 323 311 312 310 304 298 282 272 271 258 249 248
88 61 61 168 148 156 160 159 159 160 160 160 168 179 190 205 226 240 260 276 274 273 299 310 329 331 327 345 347 346 340 327 321 321 317 312 303 291 278 266 262 257 251
86 59 35 166 178 174 172 166 165 165 165 163 168 180 200 215 221 231 249 263 270 280 290 310 322 330 332 353 356 354 351 341 329 331 326 321 316 299 283 265 261 259 254
91 70 294 304 195 181 176 169 167 171 165 167 176 194 206 213 218 234 238 257 276 276 279 310 319 322 346 1 359 0 0 344 336 344 337 339 340 321 289 272 261 261 257
75 335 314 321 186 182 174 172 172 172 174 178 187 198 208 211 224 234 241 255 263 278 304 319 328 293 349 3 10 6 6 346 344 353 347 355 359 341 323 265 269 278 259
333 236 237 279 186 179 179 178 174 177 182 179 192 196 205 217 236 249 262 264 272 294 310 310 329 334 1 5 6 7 9 354 348 359 352 3 9 28 48 68 47 32 41
29 15 262 222 186 188 187 176 178 185 179 190 188 176 191 227 246 262 265 256 275 286 295 304 83 349 358 359 355 1 10 13 14 360 1 4 11 22 39 48 59 58 57
30 21 15 358 190 190 192 179 199 187 184 167 149 138 147 254 260 265 267 271 279 280 281 215 22 4 355 351 354 359 4 24 28 28 18 19 19 21 33 39 47 52 52
18 16 16 16 11 232 187 141 179 76 116 115 107 102 46 352 303 283 280 277 279 267 185 131 58 38 16 4 2 3 1 24 36 33 25 31 16 29 35 39 47 49 50
20 13 5 1 2 356 241 180 179 150 127 150 147 130 3 271 264 263 279 268 240 189 156 119 92 59 26 12 11 12 10 17 39 42 35 23 21 14 28 33 40 47 50
32 353 339 352 347 23 182 193 185 183 160 168 159 191 232 250 256 260 257 226 170 153 121 130 97 79 51 28 19 13 18 27 35 45 32 23 19 24 23 28 30 38 38